[[{"header":{"parameterUnit":"m.s-1","parameterCategory":1,"la1":30.2992,"la2":30.254,"lo1":-89.0895,"lo2":-89.0443,"dy":0.0025,"dx":0.0025,"nx":19,"ny":19,"refTime":"2026-03-29T09:00:00:Z","depth":0,"parameterNumber":2,"parameterNumberName":"U-component_of_WINDS"},"data":[0,0,0,-7.5356,-7.5359,-7.5488,-7.5489,-7.5691,-7.5693,0,0,0,0,0,0,0,0,0,0,0,-7.5342,-7.5344,-7.5356,-7.536,-7.5488,-7.5489,-7.569,-7.5693,0,0,0,0,0,0,0,0,0,0,0,-7.5341,-7.5344,-7.5346,-7.536,-7.5488,-7.5489,-7.569,-7.5579,0,0,0,0,0,0,0,0,0,0,-7.5447,-7.5458,-7.5343,-7.5346,-7.5361,-7.5488,-7.5489,-7.5573,-7.5586,-7.5649,0,-7.5712,0,-7.5706,-7.5709,-7.571,0,0,0,-7.5341,-7.5447,-7.5461,-7.5347,-7.5363,-7.5488,-7.5425,-7.558,-7.5594,-7.5666,-7.5715,-7.5721,-7.571,-7.571,-7.5712,-7.6139,-7.6142,0,0,-7.5334,-7.5378,-7.5451,-7.5471,-7.5456,-7.5421,-7.5429,-7.5588,-7.5643,-7.5716,-7.5725,-7.5713,-7.5712,-7.5714,-7.6136,-7.614,0,0,0,-7.5326,-7.5374,-7.5382,-7.5464,-7.5485,-7.5425,-7.5435,-7.5636,-7.5635,-7.5727,-7.5715,-7.5713,-7.5716,-7.6133,-7.6138,-7.632,0,0,0,-7.5321,-7.5369,-7.538,-7.5408,-7.5483,-7.5563,-7.548,-7.5624,-7.5641,-7.5714,-7.5713,-7.5719,-7.613,-7.6136,-7.6308,-7.6398,0,0,0,-7.5325,-7.5369,-7.5396,-7.541,-7.5467,-7.5559,-7.5567,-7.5627,-7.5635,-7.571,-7.5719,-7.6128,-7.6135,-7.6298,-7.6381,-7.6522,0,0,0,-7.5342,-7.5556,-7.54,-7.5635,-7.5466,-7.5673,-7.5565,-7.5716,-7.5803,-7.5715,-7.613,-7.6137,-7.6294,-7.637,-7.6511,-7.6647,-7.6709,0,0,-7.5636,-7.5593,-7.5728,-7.5592,-7.5837,-7.5649,-7.5921,-7.5958,-7.5925,-7.6069,-7.6079,-7.6312,-7.638,-7.652,-7.7043,-7.7093,0,0,0,-7.5836,-7.5933,-7.5989,-7.6074,-7.611,-7.6146,-7.6138,-7.6151,-7.6272,-7.6009,-7.6402,-7.644,-7.6521,-7.6583,-7.6625,-7.669,-7.6169,-7.6168,-7.6168,-7.6313,-7.6261,-7.648,-7.6444,-7.6528,-7.6518,-7.6581,-7.6597,-7.6519,-7.6613,-7.6654,-7.6979,-7.7054,-7.7085,-7.7154,-7.6725,-7.6725,-7.6726,-7.6726,-7.6738,-7.6866,-7.6759,-7.6933,-7.6877,-7.7021,-7.7021,-7.6961,-7.7087,-7.6943,-7.7011,-7.6856,-7.7141,-7.7198,-7.674,-7.6737,-7.6736,-7.6734,-7.6733,-7.7041,-7.7094,-7.7109,-7.7227,-7.7324,-7.7279,-7.7406,-7.735,-7.7298,-7.7366,-7.7402,-7.7399,-7.7386,-7.7388,-7.7389,-7.739,-7.7391,-7.7392,-7.7392,-7.7349,-7.7361,-7.7474,-7.7531,-7.7578,-7.7634,-7.7628,-7.7672,-7.7707,-7.7656,-7.7656,-7.7568,-7.718,-7.7082,-7.741,-7.7407,-7.7404,-7.7403,-7.7402,-7.7794,-7.7685,-7.786,-7.7909,-7.797,-7.807,-7.7998,-7.8094,-7.8123,-7.8187,-7.8086,-7.7809,-7.776,-7.7726,-7.7644,-7.8097,-7.8097,-7.8098,-7.8098,-7.8048,-7.8019,-7.8185,-7.8266,-7.8338,-7.8292,-7.849,-7.8489,-7.8469,-7.8483,-7.8411,-7.8299,-7.8267,-7.8236,-7.8192,-7.8114,-7.8677,-7.8677,-7.8678,-7.8317,-7.8293,-7.8472,-7.8454,-7.8498,-7.8538,-7.8723,-7.8818,-7.8773,-7.87,-7.8493,-7.8469,-7.8287,-7.8231,-7.815,-7.8082,-7.7939,0,0]},{"header":{"parameterUnit":"m.s-1","parameterCategory":1,"la1":30.2992,"la2":30.254,"lo1":-89.0895,"lo2":-89.0443,"dy":0.0025,"dx":0.0025,"nx":19,"ny":19,"refTime":"2026-03-29T09:00:00:Z","depth":0,"parameterNumber":3,"parameterNumberName":"V-component_of_WINDS"},"data":[0,0,0,1.8883,1.8883,1.8921,1.8921,1.8966,1.8966,0,0,0,0,0,0,0,0,0,0,0,1.887,1.887,1.8882,1.8883,1.8921,1.8921,1.8966,1.8966,0,0,0,0,0,0,0,0,0,0,0,1.887,1.887,1.887,1.8884,1.8921,1.8921,1.8966,1.8939,0,0,0,0,0,0,0,0,0,0,1.8902,1.8889,1.887,1.887,1.8884,1.8921,1.8921,1.8937,1.894,1.8948,0,1.8955,0,1.8961,1.8969,1.8969,0,0,0,1.8884,1.8886,1.8898,1.887,1.8884,1.8921,1.8904,1.8939,1.8942,1.8952,1.8955,1.8957,1.8962,1.897,1.897,1.9014,1.9014,0,0,1.8882,1.8875,1.8896,1.8901,1.8895,1.8903,1.8905,1.8941,1.8944,1.8955,1.8958,1.8963,1.897,1.897,1.9014,1.9014,0,0,0,1.8876,1.8874,1.8885,1.8899,1.8906,1.8904,1.8907,1.8942,1.8947,1.8959,1.8963,1.897,1.8971,1.9014,1.9014,1.9016,0,0,0,1.8874,1.887,1.8884,1.888,1.8905,1.8925,1.8907,1.8944,1.8948,1.8963,1.897,1.8971,1.9013,1.9014,1.9015,1.9017,0,0,0,1.8868,1.8869,1.8874,1.8879,1.8896,1.8924,1.8931,1.8945,1.8951,1.897,1.8971,1.9013,1.9014,1.9015,1.9016,1.9027,0,0,0,1.8858,1.8874,1.8874,1.8894,1.8895,1.8926,1.893,1.8953,1.8969,1.897,1.9013,1.9014,1.9015,1.9016,1.9027,1.9034,1.9037,0,0,1.8874,1.8875,1.8888,1.8889,1.8918,1.892,1.895,1.897,1.8977,1.9001,1.9002,1.9015,1.9016,1.9027,1.9057,1.9059,0,0,0,1.889,1.8899,1.8908,1.8924,1.8941,1.8956,1.8973,1.8982,1.9003,1.8988,1.9023,1.9024,1.903,1.9034,1.9036,1.9042,1.9016,1.9015,1.9015,1.89,1.8911,1.8933,1.8949,1.8964,1.8984,1.8997,1.9011,1.9015,1.9024,1.903,1.9047,1.9052,1.9053,1.9059,1.9036,1.9036,1.9036,1.9036,1.8924,1.8938,1.8947,1.8971,1.8983,1.9003,1.9023,1.9026,1.9047,1.9042,1.9049,1.9042,1.9055,1.9061,1.9037,1.9036,1.9036,1.9036,1.9036,1.8931,1.894,1.8951,1.8977,1.8996,1.9012,1.9032,1.9042,1.9051,1.9057,1.9066,1.9066,1.9067,1.9061,1.9061,1.9061,1.9061,1.9061,1.9061,1.8933,1.8946,1.8962,1.8985,1.8998,1.9016,1.9038,1.9051,1.9067,1.9073,1.9073,1.9077,1.9055,1.9049,1.9062,1.9062,1.9062,1.9062,1.9062,1.8951,1.895,1.8975,1.8988,1.9016,1.9035,1.9049,1.9075,1.9087,1.9097,1.9101,1.9083,1.9085,1.9083,1.9078,1.9098,1.9098,1.9098,1.9098,1.8957,1.896,1.8989,1.901,1.9031,1.9047,1.9076,1.9094,1.9112,1.912,1.9119,1.9114,1.9112,1.9115,1.9113,1.9108,1.9135,1.9135,1.9135,1.8969,1.8975,1.8997,1.9017,1.904,1.9061,1.9088,1.9111,1.9132,1.9137,1.9127,1.9126,1.9117,1.9114,1.9116,1.9113,1.9105,0,0]}]]